Location: Washington
(38.8950°N, 77.0367°W)
Time: 03:38:02
(UTC-04:00)

N. Korean satellite - Visible Passes

Search period start: 01 September 2014 00:00
Search period end: 11 September 2014 00:00
Orbit: 485 x 558 km, 97.3° (Epoch: 31 August)

Date Brightness Start Highest point End Pass type
(mag) Time Alt. Az. Time Alt. Az. Time Alt. Az.
01 Sep 6.8 20:32:06 10° SSE 20:35:59 64° ENE 20:39:48 10° N visible
02 Sep 7.2 20:19:13 10° SE 20:22:55 43° ENE 20:26:34 10° N visible
02 Sep 9.8 21:55:41 10° WSW 21:57:16 12° W 21:58:50 10° WNW visible
03 Sep 7.7 20:06:27 10° SE 20:09:52 30° ENE 20:13:13 10° N visible
03 Sep 9.5 21:41:26 10° SW 21:44:03 17° W 21:46:40 10° NW visible
04 Sep 8.9 21:27:39 10° SSW 21:30:51 24° W 21:34:02 10° NW visible
05 Sep 8.3 21:14:06 10° SSW 21:17:40 35° W 21:21:12 10° NNW visible
06 Sep 7.5 21:00:44 10° S 21:04:30 52° W 21:08:14 10° NNW visible
07 Sep 6.8 20:47:29 10° S 20:51:21 79° WSW 20:55:08 10° NNW visible
08 Sep 6.6 20:34:23 10° SSE 20:38:12 69° ENE 20:41:57 10° N visible
09 Sep 7.0 20:21:24 10° SSE 20:25:04 46° ENE 20:28:40 10° N visible
09 Sep 9.8 21:58:32 10° WSW 21:59:26 11° W 22:00:21 10° WNW visible
10 Sep 7.5 20:08:33 10° SE 20:11:56 31° ENE 20:15:16 10° N visible
10 Sep 9.5 21:43:50 10° SW 21:46:10 16° W 21:48:28 10° NW visible
